Regional Weather Roundup
Issued by NWS

Home | Current Version | Previous Version | Text Only | Print | Product List | Glossary Off
Versions: 1 2 3 4 5 6 7 8 9 10 11 12 13 14 15 16 17 18 19 20 21 22 23 24 25 26 27 28 29 30 31 32 33 34 35 36 37 38 39 40 41 42 43 44 45 46 47 48 49 50

000
ASUS43 KBIS 261910
RWRND

NORTH DAKOTA REGIONAL WEATHER ROUNDUP
NATIONAL WEATHER SERVICE BISMARCK ND
200 PM CDT SUN APR 26 2015

NOTE: "FAIR" INDICATES FEW OR NO CLOUDS BELOW 12,000 FEET WITH NO
SIGNIFICANT WEATHER AND/OR OBSTRUCTIONS TO VISIBILITY.


NDZ001>003-009>011-017-262000-
NORTHWEST NORTH DAKOTA

CITY           SKY/WX    TMP DP  RH WIND       PRES   REMARKS
WILLISTON      PTSUNNY   50  35  56 N10       30.11F
MINOT          CLOUDY    47  41  80 W3        30.10R
MINOT AFB      CLOUDY    48  48  98 CALM      30.09S
$$

NDZ018>021-031>035-040>046-262000-
SOUTHWEST NORTH DAKOTA

CITY           SKY/WX    TMP DP  RH WIND       PRES   REMARKS
BISMARCK       CLOUDY    54  47  77 W5        30.10R
DICKINSON      RAIN      43  40  89 NE10      30.08R FOG
GARRISON         N/A     47  43  86 NW5       30.10R
HETTINGER ARPT LGT RAIN  46  43  89 NE12      30.07S
$$

NDZ004>008-012>016-024-026-027-054-262000-
NORTHEAST NORTH DAKOTA

CITY           SKY/WX    TMP DP  RH WIND       PRES   REMARKS
GRAND FORKS    MOSUNNY   64  26  23 VRB6      30.12F
GRND FRKS AFB  SUNNY     65  26  22 SW7       30.12S
DEVILS LAKE    CLOUDY    55  45  67 W10       30.11S
$$

NDZ022-023-025-028>030-036>039-047>053-262000-
SOUTHEAST NORTH DAKOTA

CITY           SKY/WX    TMP DP  RH WIND       PRES   REMARKS
FARGO          SUNNY     64  22  20 VRB5      30.12S
JAMESTOWN      MOSUNNY   64  36  35 S7        30.08F
$$



USA.gov is the U.S. government's official web portal to all federal, state and local government web resources and services.